Change the Weather History Date:

Tuesday, January 7, 2014

  Actual Average Record
Temperature  
Mean Temperature 30 °F -  
Max Temperature 34 °F 18 °F 44 °F (2001)
Min Temperature 27 °F 0 °F -32 °F (1975)
Degree Days  
Heating Degree Days 34    
Moisture  
Dew Point 21 °F    
Average Humidity 70    
Maximum Humidity 82    
Minimum Humidity 55    
Precipitation  
Precipitation 0.00 in - - ()
Sea Level Pressure  
Sea Level Pressure 29.58 in    
Wind  
Wind Speed 5 mph (North)    
Max Wind Speed 9 mph    
Max Gust Speed -    
Visibility 10 miles    
Events      
Averages and records for this station are not official NWS values.
T = Trace of Precipitation, MM = Missing Value Source: NWS Daily Summary

Daily Weather History Graph

Daily Weather History Graph

Search for Another Location

Airport or City:

Trip Planner

Search our weather history database for the weather conditions in past years. The results will help you decide how hot, cold, wet, or windy it might be!

Date:

Astronomy

Jan. 07, 2014 Rise Set
Actual Time 10:20 AM AKST 3:53 PM AKST
Civil Twilight 9:17 AM AKST 4:56 PM AKST
Nautical Twilight 8:16 AM AKST 5:57 PM AKST
Astronomical Twilight 7:21 AM AKST 6:52 PM AKST
Moon 11:45 AM AKST (1/7) 12:57 AM AKST (1/7)
Length of Visible Light 7h 39m
Length of Day
5h 33m
Waxing Crescent, 47% of the Moon is Illuminated
Jan 7
Waxing Crescent
Jan 7
First Quarter
Jan 15
Full
Jan 23
Last Quarter
Jan 30
New

Hourly Weather History & Observations

Time (AKST) Temp. Windchill Dew Point Humidity Pressure Visibility Wind Dir Wind Speed Gust Speed Precip Events Conditions
12:53 AM 33.1 °F 30.0 °F 28.0 °F 82% 29.70 in 10.0 mi North 3.5 mph - N/A   Overcast
1:53 AM 33.1 °F 28.7 °F 26.1 °F 75% 29.69 in 10.0 mi Variable 4.6 mph - N/A   Overcast
3:53 AM 30.9 °F 25.2 °F 21.9 °F 69% 29.69 in 10.0 mi NNE 5.8 mph - N/A   Mostly Cloudy
4:53 AM 30.0 °F 25.2 °F 21.9 °F 72% 29.67 in 10.0 mi North 4.6 mph - N/A   Clear
5:53 AM 30.0 °F 24.1 °F 21.0 °F 69% 29.65 in 10.0 mi North 5.8 mph - N/A   Clear
6:53 AM 28.9 °F 23.9 °F 19.9 °F 69% 29.63 in 10.0 mi North 4.6 mph - N/A   Clear
7:53 AM 28.9 °F 21.9 °F 19.9 °F 69% 29.63 in 10.0 mi North 6.9 mph - N/A   Clear
8:53 AM 30.0 °F 23.2 °F 19.9 °F 66% 29.62 in 10.0 mi North 6.9 mph - N/A   Mostly Cloudy
9:53 AM 30.0 °F 24.1 °F 19.9 °F 66% 29.62 in 10.0 mi North 5.8 mph - N/A   Mostly Cloudy
10:53 AM 28.9 °F 23.9 °F 21.9 °F 75% 29.62 in 10.0 mi North 4.6 mph - N/A   Partly Cloudy
11:53 AM 30.9 °F 22.8 °F 19.9 °F 64% 29.60 in 10.0 mi NNE 9.2 mph - N/A   Scattered Clouds
12:53 PM 32.0 °F 24.8 °F 21.0 °F 64% 29.60 in 10.0 mi NNE 8.1 mph - N/A   Clear
1:53 PM 32.0 °F 26.4 °F 21.0 °F 64% 29.58 in 10.0 mi North 5.8 mph - N/A   Scattered Clouds
2:53 PM 30.0 °F 26.5 °F 21.9 °F 72% 29.56 in 10.0 mi North 3.5 mph - N/A   Scattered Clouds
3:53 PM 28.9 °F 23.9 °F 21.9 °F 75% 29.55 in 10.0 mi North 4.6 mph - N/A   Clear
4:53 PM 28.9 °F 23.9 °F 21.9 °F 75% 29.54 in 10.0 mi North 4.6 mph - N/A   Clear
5:53 PM 28.9 °F 22.8 °F 21.0 °F 72% 29.52 in 10.0 mi Variable 5.8 mph - N/A   Clear
6:53 PM 28.0 °F 21.7 °F 21.0 °F 75% 29.51 in 10.0 mi NNW 5.8 mph - N/A   Clear
7:53 PM 28.9 °F 25.2 °F 21.0 °F 72% 29.49 in 10.0 mi North 3.5 mph - N/A   Mostly Cloudy
8:53 PM 30.0 °F 24.1 °F 19.9 °F 66% 29.48 in 10.0 mi North 5.8 mph - N/A   Mostly Cloudy
9:53 PM 28.0 °F 24.2 °F 21.0 °F 75% 29.47 in 10.0 mi North 3.5 mph - N/A   Overcast
10:53 PM 27.0 °F 20.5 °F 21.0 °F 78% 29.46 in 10.0 mi NNW 5.8 mph - N/A   Overcast
11:53 PM 27.0 °F 23.0 °F 21.0 °F 78% 29.47 in 10.0 mi NNW 3.5 mph - N/A   Overcast